Location: Berg
(48.5667°N, 13.9833°E)
Time: 22:20:54
(UTC+00:00)

STARLINK-1229 - Pass Details

Date: 09 April 2020
Orbit: 378 x 381 km, 53.0° (Epoch: 24 May)

Event Time Altitude Azimuth Distance (km) Brightness Sun altitude
Rises 18:15:06 0° 295° (WNW) 2,264 9.4 -5.3°
Reaches altitude 10° 18:17:10 10° 298° (WNW) 1,408 7.5 -5.6°
Maximum altitude 18:20:18 67° 22° (NNE) 419 3.0 -6.1°
Drops below altitude 10° 18:23:25 10° 106° (ESE) 1,400 5.0 -6.6°
Enters shadow 18:23:37 - 106° (ESE) 1,485 5.1 -6.6°
